QPF
0.00 0.00 0.00 0.00 0.00 0.00 0.00 0.00 0.00 0.00 0.00 0.00 0.00 0.00 0.00 0.00 0.00 0.00 0.00 0.00 0.00 0.00 0.00 0.00 0.00 0.00 0.00 0.00 0.00 0.00 0.00 0.00
0.00 0.00 0.00 0.00 0.00 0.00 0.00 0.00 0.00 0.00 0.00 0.00 0.00 0.00 0.00 0.00 0.00 0.00 0.00 0.00 0.00 0.00 0.00 0.00 0.00 0.00 0.00 0.00 0.00 0.00 0.00 0.00
0.00 0.00 0.00 0.00 0.00 0.00 0.00 0.00 0.00 0.00 0.00 0.00 0.00 0.00 0.00 0.00 0.00 0.00 0.00 0.00 0.00 0.00 0.00 0.00 0.00 0.00 0.00 0.00 0.00 0.00 0.00 0.00
0.00 0.00 0.00 0.00 0.00 0.00 0.00 0.00 0.00 0.00 0.00 0.00 0.00 0.00 0.00 0.00 0.00 0.00 0.00 0.00 0.00 0.00 0.00 0.00 0.00 0.00 0.00 0.00 0.00 0.00 0.00 0.00
0.00 0.00 0.00 0.00 0.00 0.00 0.00 0.00 0.00 0.00 0.00 0.00 0.00 0.00 0.00 0.00 0.00 0.00 0.00 0.00 0.00 0.00 0.00 0.00 0.00 0.00 0.00 0.00 0.00 0.00 0.00 0.00
0.00 0.00 0.00 0.00 0.00 0.00 0.00 0.00 0.00 0.00 0.00 0.00 0.01 0.01 0.01 0.01 0.00 0.00 0.00 0.00 0.00 0.00 0.00 0.00 0.00 0.00 0.00 0.00 0.00 0.00 0.00 0.00
0.00 0.00 0.00 0.00 0.00 0.00 0.00 0.00 0.00 0.00 0.00 0.00 0.02 0.02 0.05 0.04 0.01 0.01 0.02 0.00 0.00 0.00 0.00 0.00 0.00 0.00 0.00 0.00 0.00 0.00 0.00 0.00
0.00 0.00 0.01 0.01 0.00 0.00 0.00 0.00 0.00 0.01 0.00 0.00 0.01 0.02 0.02 0.02 0.01 0.01 0.02 0.01 0.07 0.00 0.00 0.00 0.00 0.00 0.00 0.00 0.00 0.00 0.00 0.00
0.00 0.00 0.01 0.01 0.01 0.01 0.00 0.00 0.00 0.02 0.05 0.05 0.03 0.04 0.02 0.01 0.01 0.00 0.00 0.05 0.18 0.07 0.05 0.02 0.00 0.00 0.00 0.00 0.00 0.00 0.00 0.00
0.00 0.00 0.00 0.00 0.00 0.01 0.02 0.01 0.01 0.01 0.01 0.03 0.06 0.09 0.06 0.04 0.02 0.00 0.01 0.14 0.23 0.10 0.09 0.13 0.07 0.04 0.01 0.01 0.01 0.01 0.00 0.00
0.00 0.00 0.00 0.00 0.00 0.00 0.00 0.00 0.00 0.00 0.00 0.00 0.00 0.02 0.05 0.07 0.10 0.09 0.13 0.25 0.28 0.32 0.20 0.14 0.08 0.06 0.10 0.08 0.04 0.06 0.06 0.03
0.00 0.00 0.00 0.00 0.00 0.00 0.00 0.00 0.00 0.00 0.00 0.00 0.00 0.00 0.00 0.00 0.01 0.05 0.11 0.17 0.26 0.34 0.28 0.17 0.08 0.07 0.15 0.12 0.09 0.11 0.12 0.12
0.00 0.00 0.00 0.00 0.00 0.00 0.00 0.00 0.00 0.00 0.00 0.00 0.00 0.00 0.00 0.00 0.00 0.00 0.00 0.02 0.08 0.23 0.28 0.29 0.16 0.09 0.13 0.08 0.04 0.08 0.12 0.14
0.00 0.00 0.00 0.00 0.00 0.00 0.00 0.00 0.00 0.00 0.00 0.00 0.00 0.00 0.00 0.00 0.00 0.00 0.00 0.00 0.00 0.01 0.02 0.06 0.16 0.25 0.20 0.16 0.10 0.07 0.04 0.03
0.00 0.00 0.00 0.00 0.00 0.00 0.00 0.00 0.00 0.00 0.00 0.00 0.00 0.00 0.00 0.00 0.00 0.00 0.00 0.00 0.00 0.00 0.00 0.00 0.01 0.05 0.15 0.19 0.08 0.04 0.04 0.05
0.00 0.00 0.00 0.00 0.00 0.00 0.00 0.00 0.00 0.00 0.00 0.00 0.00 0.00 0.00 0.00 0.00 0.00 0.00 0.00 0.00 0.00 0.00 0.00 0.01 0.01 0.00 0.04 0.05 0.02 0.01 0.00
0.00 0.00 0.00 0.00 0.00 0.00 0.00 0.00 0.00 0.00 0.00 0.00 0.00 0.00 0.00 0.00 0.00 0.00 0.00 0.00 0.00 0.00 0.00 0.00 0.00 0.00 0.00 0.00 0.00 0.01 0.01 0.00
0.00 0.00 0.00 0.00 0.00 0.00 0.00 0.00 0.00 0.00 0.00 0.00 0.00 0.00 0.00 0.00 0.00 0.00 0.00 0.00 0.00 0.00 0.00 0.00 0.00 0.01 0.01 0.00 0.00 0.00 0.00 0.00
0.00 0.00 0.00 0.00 0.00 0.00 0.00 0.00 0.00 0.00 0.00 0.00 0.00 0.00 0.00 0.00 0.00 0.00 0.00 0.00 0.00 0.00 0.00 0.00 0.00 0.01 0.01 0.01 0.01 0.01 0.00 0.00
0.00 0.00 0.00 0.00 0.00 0.00 0.00 0.00 0.00 0.00 0.00 0.00 0.00 0.00 0.00 0.00 0.00 0.00 0.00 0.00 0.00 0.00 0.00 0.00 0.00 0.01 0.01 0.01 0.01 0.02 0.01 0.01
MSLP
1008.91 1009.09 1009.34 1009.69 1009.82 1009.87 1010.18 1010.48 1010.58 1010.71 1010.94 1011.24 1011.48 1011.68 1011.86 1011.98 1012.15 1012.35 1012.54 1012.75 1013.06 1013.36 1013.72 1014.10 1014.43 1014.78 1015.01 1015.03 1015.19 1015.42 1015.59 1015.77
1008.98 1008.96 1009.02 1009.30 1009.72 1009.97 1010.00 1010.29 1010.65 1010.90 1011.10 1011.34 1011.63 1011.89 1012.11 1012.23 1012.31 1012.38 1012.45 1012.62 1012.90 1013.16 1013.48 1013.83 1014.23 1014.52 1014.84 1014.97 1015.12 1015.36 1015.65 1015.64
1009.23 1009.28 1009.26 1009.47 1009.50 1009.79 1010.16 1010.27 1010.29 1010.61 1010.97 1011.32 1011.72 1011.99 1012.17 1012.44 1012.58 1012.59 1012.51 1012.64 1012.83 1013.02 1013.32 1013.53 1013.89 1014.30 1014.64 1014.83 1015.01 1015.15 1015.29 1015.52
1008.95 1009.08 1009.10 1009.05 1009.30 1009.70 1009.79 1010.15 1010.47 1010.50 1010.72 1010.99 1011.34 1011.64 1011.92 1012.21 1012.43 1012.59 1012.68 1012.80 1012.98 1013.09 1013.28 1013.52 1013.85 1014.17 1014.54 1014.78 1014.96 1015.02 1015.13 1015.18
1008.67 1008.91 1009.03 1009.13 1009.22 1009.31 1009.66 1009.93 1010.03 1010.41 1010.54 1010.77 1011.13 1011.41 1011.66 1011.95 1012.22 1012.52 1012.71 1012.77 1012.99 1013.16 1013.33 1013.48 1013.76 1014.05 1014.37 1014.68 1014.78 1014.89 1014.97 1014.98
1008.73 1008.97 1008.90 1008.99 1009.07 1009.43 1009.42 1009.84 1009.93 1010.03 1010.23 1010.48 1010.76 1011.23 1011.49 1011.75 1011.92 1012.08 1012.44 1012.65 1012.72 1012.84 1013.02 1013.23 1013.45 1013.78 1014.14 1014.52 1014.78 1014.78 1014.66 1014.65
1008.56 1008.80 1009.02 1009.16 1009.30 1009.51 1009.69 1009.76 1009.94 1010.02 1010.17 1010.31 1010.47 1010.94 1011.22 1011.42 1011.60 1011.76 1011.88 1012.29 1012.55 1012.74 1012.84 1012.87 1013.09 1013.34 1013.68 1014.04 1014.41 1014.62 1014.72 1014.70
1008.85 1008.71 1008.88 1009.05 1009.41 1009.53 1009.72 1009.71 1009.94 1010.09 1010.25 1010.24 1010.44 1010.72 1011.07 1011.28 1011.42 1011.43 1011.56 1011.83 1012.08 1012.16 1012.27 1012.53 1012.74 1013.10 1013.50 1013.61 1013.82 1014.06 1014.37 1014.63
1010.02 1009.83 1009.55 1009.48 1009.68 1009.82 1010.08 1010.07 1010.14 1010.77 1010.79 1010.94 1010.82 1010.60 1010.99 1011.21 1011.08 1011.20 1011.19 1011.22 1011.67 1011.56 1011.65 1011.85 1012.30 1012.51 1013.11 1013.49 1013.41 1013.73 1013.87 1014.02
1011.65 1011.60 1011.46 1010.82 1010.59 1010.78 1010.96 1010.79 1010.72 1011.07 1011.27 1011.32 1011.22 1011.16 1011.05 1010.99 1011.14 1011.15 1010.69 1010.63 1010.84 1011.08 1011.30 1011.50 1011.59 1011.37 1012.16 1012.75 1012.98 1012.90 1013.06 1013.26
1012.80 1012.80 1012.77 1012.36 1011.42 1011.23 1011.39 1011.42 1011.57 1011.77 1011.67 1011.78 1011.79 1011.66 1011.51 1011.43 1011.27 1011.13 1010.82 1010.63 1010.32 1010.39 1010.28 1010.75 1011.02 1010.71 1010.74 1011.91 1012.35 1012.41 1012.72 1012.61
1013.65 1013.53 1013.45 1013.28 1012.71 1012.14 1011.47 1011.58 1012.05 1012.17 1012.18 1012.17 1012.20 1012.25 1012.05 1011.73 1011.68 1011.46 1011.16 1010.97 1010.45 1010.30 1009.80 1009.65 1010.10 1010.22 1010.22 1010.22 1011.92 1012.08 1012.30 1012.62
1015.06 1014.51 1014.35 1014.22 1013.78 1013.38 1012.77 1012.41 1012.39 1012.50 1012.59 1012.47 1012.48 1012.57 1012.37 1012.29 1011.98 1011.61 1011.48 1011.23 1011.04 1010.40 1009.62 1009.64 1009.92 1009.90 1010.40 1010.77 1011.16 1011.30 1011.35 1012.20
1016.42 1016.05 1015.58 1015.37 1015.39 1014.87 1014.07 1013.58 1013.11 1013.01 1013.07 1012.86 1012.78 1012.67 1012.53 1012.21 1012.24 1011.91 1011.50 1011.29 1011.14 1010.56 1009.78 1009.25 1009.26 1009.24 1009.84 1010.68 1011.05 1010.22 1010.51 1011.32
1017.65 1017.39 1016.78 1016.78 1016.01 1015.42 1014.01 1013.97 1013.78 1013.52 1013.15 1012.83 1012.93 1012.65 1012.54 1012.20 1011.91 1011.78 1011.48 1011.19 1010.96 1010.72 1010.22 1009.87 1009.17 1008.92 1009.06 1009.28 1009.58 1009.51 1010.29 1010.54
1018.47 1018.42 1016.39 1018.56 1017.20 1017.34 1015.91 1015.51 1014.52 1013.84 1013.62 1013.20 1013.03 1012.72 1012.67 1012.32 1011.70 1011.59 1011.37 1011.08 1010.76 1010.54 1010.27 1010.12 1009.64 1008.93 1008.67 1008.66 1008.74 1008.88 1009.48 1010.06
1018.96 1018.65 1018.20 1018.61 1017.93 1018.28 1016.85 1016.72 1014.57 1014.45 1013.97 1013.79 1013.15 1013.00 1012.66 1012.25 1011.82 1011.57 1011.35 1010.87 1010.45 1010.17 1009.83 1009.75 1009.56 1009.14 1008.48 1008.56 1008.60 1008.60 1008.78 1008.66
1019.33 1019.27 1019.29 1018.12 1018.03 1018.38 1017.87 1017.01 1015.34 1015.02 1014.52 1013.79 1013.31 1013.10 1012.89 1012.52 1012.20 1011.87 1011.47 1010.92 1010.38 1010.06 1009.49 1009.20 1009.00 1008.71 1008.27 1007.60 1007.34 1007.60 1007.77 1007.82
1019.60 1019.61 1019.20 1019.28 1018.80 1018.89 1018.38 1017.95 1016.32 1016.13 1015.09 1014.21 1013.92 1013.64 1013.15 1012.70 1012.57 1012.11 1011.41 1010.94 1010.25 1009.84 1009.33 1008.83 1008.29 1007.99 1007.59 1006.90 1006.35 1006.39 1006.31 1006.38
1020.05 1019.78 1019.26 1019.59 1018.75 1019.34 1019.45 1018.04 1017.09 1016.31 1015.53 1015.07 1014.89 1014.55 1013.75 1013.12 1012.90 1012.36 1011.48 1010.72 1010.28 1009.48 1008.80 1008.14 1007.57 1007.01 1006.65 1006.25 1005.31 1005.31 1005.52 1005.56
Thickness
5754 5752 5750 5747 5746 5747 5745 5743 5743 5742 5740 5737 5734 5733 5732 5731 5730 5728 5726 5724 5721 5718 5714 5711 5708 5704 5703 5703 5702 5700 5699 5698
5748 5748 5749 5747 5743 5741 5741 5740 5737 5735 5733 5731 5728 5726 5724 5722 5722 5722 5722 5721 5719 5716 5713 5709 5705 5703 5700 5699 5697 5696 5695 5694
5740 5738 5738 5737 5739 5737 5735 5735 5735 5732 5730 5726 5722 5720 5717 5714 5714 5714 5715 5716 5714 5713 5710 5708 5704 5699 5697 5696 5694 5694 5693 5692
5738 5736 5736 5738 5735 5731 5731 5729 5727 5727 5725 5722 5719 5717 5714 5711 5709 5707 5707 5707 5706 5706 5705 5702 5698 5696 5693 5691 5690 5690 5690 5689
5735 5734 5733 5732 5731 5729 5725 5723 5723 5721 5720 5717 5713 5711 5709 5707 5704 5702 5700 5700 5699 5698 5697 5697 5695 5691 5688 5686 5686 5686 5687 5687
5729 5728 5728 5727 5723 5722 5720 5716 5715 5714 5714 5712 5709 5705 5703 5700 5699 5698 5695 5693 5693 5693 5693 5692 5690 5687 5683 5679 5679 5681 5684 5684
5723 5722 5721 5720 5717 5713 5710 5709 5707 5705 5705 5704 5703 5701 5698 5695 5695 5693 5692 5688 5686 5684 5684 5687 5686 5684 5681 5678 5675 5674 5674 5678
5706 5709 5710 5709 5706 5705 5701 5699 5696 5696 5695 5695 5693 5693 5691 5689 5689 5690 5688 5685 5681 5680 5681 5680 5680 5678 5676 5675 5673 5671 5668 5669
5684 5686 5690 5691 5689 5689 5686 5686 5684 5678 5679 5679 5681 5684 5681 5681 5683 5683 5683 5680 5674 5676 5677 5675 5673 5672 5668 5666 5668 5666 5665 5666
5658 5658 5658 5665 5668 5666 5666 5668 5670 5666 5663 5663 5665 5668 5670 5672 5672 5673 5675 5675 5673 5672 5670 5668 5667 5670 5662 5661 5662 5664 5662 5664
5635 5633 5633 5635 5644 5647 5646 5647 5648 5648 5648 5648 5649 5651 5655 5658 5662 5663 5664 5664 5669 5666 5664 5661 5661 5666 5666 5659 5657 5656 5654 5659
5612 5612 5609 5610 5616 5623 5627 5629 5627 5628 5631 5631 5632 5634 5638 5643 5646 5650 5653 5654 5659 5659 5661 5662 5661 5657 5662 5659 5651 5654 5652 5650
5581 5585 5587 5587 5588 5594 5600 5605 5608 5610 5611 5614 5616 5618 5622 5624 5629 5636 5639 5643 5644 5650 5657 5658 5657 5654 5648 5642 5643 5648 5645 5644
5549 5553 5557 5561 5562 5566 5574 5580 5587 5590 5592 5597 5600 5603 5606 5612 5614 5619 5626 5630 5632 5638 5646 5653 5653 5654 5646 5631 5629 5647 5648 5642
5521 5524 5530 5533 5541 5549 5563 5565 5569 5572 5578 5583 5585 5589 5593 5598 5604 5608 5613 5617 5621 5624 5631 5635 5644 5646 5645 5640 5634 5639 5637 5637
5500 5502 5519 5505 5519 5522 5537 5543 5553 5561 5562 5567 5571 5575 5578 5584 5591 5595 5601 5606 5610 5614 5617 5620 5626 5634 5635 5638 5634 5637 5634 5631
5484 5487 5492 5486 5502 5503 5519 5522 5543 5544 5548 5550 5556 5559 5565 5571 5579 5583 5588 5595 5601 5605 5610 5611 5614 5620 5627 5627 5628 5629 5627 5631
5472 5475 5475 5488 5490 5492 5500 5511 5528 5530 5535 5540 5544 5546 5549 5556 5562 5569 5575 5582 5589 5595 5602 5605 5608 5612 5619 5626 5630 5628 5627 5626
5463 5464 5468 5471 5479 5480 5488 5494 5509 5513 5520 5526 5528 5530 5535 5540 5545 5553 5563 5570 5579 5584 5591 5597 5603 5607 5612 5621 5628 5627 5627 5629
5453 5454 5462 5461 5470 5469 5470 5484 5495 5501 5506 5507 5508 5512 5519 5525 5528 5536 5548 5558 5566 5575 5584 5591 5598 5604 5609 5614 5625 5624 5622 5622